[[{"header":{"parameterUnit":"m.s-1","parameterCategory":1,"la1":30.2991,"la2":30.254,"lo1":-89.0895,"lo2":-89.0444,"dy":0.0017,"dx":0.0017,"nx":28,"ny":28,"refTime":"2023-08-18T09:00:00:Z","depth":0,"parameterNumber":2,"parameterNumberName":"U-component_of_WINDS"},"data":[0,0,0,0,0,0,0,0,0,0,0,0,0,0,0,0,0,0,0,0,0,0,0,0,0,0,0,0,0,0,0,0,0,0,0,0,0,0,0,0,0,0,0,0,0,0,0,0,0,0,0,0,0,0,0,0,0,0,4.3325,4.3326,0,4.3386,4.3387,4.3387,4.3281,4.3277,4.3274,4.3271,4.3332,4.3337,4.3342,0,0,0,0,0,0,0,0,0,0,0,0,0,4.3113,4.3117,4.3325,4.3326,4.3326,4.3386,4.3387,4.3388,4.3282,4.3277,4.3273,4.3269,4.3331,4.3336,4.3342,0,0,0,0,0,0,0,0,0,0,0,0,0,4.3193,4.3119,4.3325,4.3281,4.3277,4.3386,4.3387,4.3388,4.3283,4.3277,4.3272,4.3267,4.3329,4.3336,4.3343,4.3497,0,0,4.3366,4.3369,0,0,0,0,0,0,0,0,4.3188,4.32,4.3286,4.3284,4.328,4.332,4.3334,4.3424,4.3284,4.3281,4.327,4.3264,4.3333,4.3339,4.3363,4.35,4.3503,4.3367,4.3371,4.3374,4.3377,0,0,0,0,0,0,0,4.3183,4.3197,4.3349,4.3288,4.3284,4.3257,4.3262,4.3351,4.3336,4.3281,4.3273,4.3282,4.333,4.3356,4.3363,4.3503,4.3367,4.3373,4.3378,4.3381,4.3764,4.3769,0,0,0,0,0,0,4.3183,4.3193,4.3347,4.3351,4.322,4.3265,4.3271,4.3313,4.3335,4.3333,4.3286,4.3277,4.3346,4.3355,4.3365,4.3541,4.3374,4.3381,4.3386,4.3758,4.3765,4.3771,0,0,0,0,0,0,4.3179,4.3198,4.3344,4.327,4.3287,4.3274,4.3322,4.3317,4.3343,4.3339,4.3336,4.3315,4.3342,4.3355,4.3464,4.3542,4.3385,4.3392,4.3751,4.376,4.3768,4.3899,0,0,0,0,0,0,4.3173,4.3197,4.3256,4.3272,4.3291,4.3444,4.3327,4.3322,4.3356,4.3344,4.3366,4.3364,4.3338,4.3453,4.3471,4.355,4.3397,4.3744,4.3755,4.3765,4.3888,4.3911,4.3931,0,0,0,0,0,4.3166,4.3292,4.326,4.3279,4.3365,4.3448,4.3459,4.3427,4.3363,4.3421,4.3418,4.3363,4.3532,4.3465,4.3485,4.3567,4.3739,4.3752,4.3765,4.3878,4.3906,4.3931,0,0,0,0,0,0,4.3286,4.3293,4.3258,4.3393,4.3421,4.343,4.3503,4.346,4.3506,4.3493,4.3451,4.3457,4.3574,4.3582,4.3507,4.3714,4.3624,4.3642,4.3704,4.3731,4.3752,4.3746,4.3404,0,0,0,0,0,4.3328,4.3396,4.3399,4.3517,4.3533,4.3516,4.3551,4.3524,4.3551,4.3563,4.3568,4.3596,4.3654,4.3694,4.3748,4.389,4.389,4.3955,4.3977,4.3995,4.4009,4.4079,4.4106,4.3813,4.3813,4.3813,0,0,4.3416,4.3428,4.3474,4.3542,4.356,4.3629,4.3527,4.3606,4.3655,4.3575,4.3676,4.3681,4.371,4.3834,4.3889,4.3844,4.409,4.4011,4.4026,4.403,4.4095,4.4123,4.4147,4.3822,4.382,4.3819,0,0,4.361,4.3629,4.3726,4.3746,4.3775,4.3762,4.3786,4.3802,4.3802,4.3904,4.3843,4.3902,4.4005,4.4026,4.405,4.4249,4.4198,4.4268,4.438,4.4449,4.4472,4.4492,4.4558,4.4583,4.4283,4.4284,4.4284,0,4.3715,4.3817,4.3782,4.3864,4.3893,4.3823,4.392,4.3941,4.3987,4.4008,4.3958,4.4082,4.4097,4.4222,4.4271,4.4295,4.4317,4.4263,4.4472,4.4491,4.451,4.4572,4.4597,4.4291,4.429,4.429,4.4289,0,4.3942,4.4014,4.409,4.4133,4.4172,4.4261,4.4238,4.4281,4.4251,4.4243,4.4345,4.436,4.4413,4.4442,4.4414,4.4563,4.4533,4.4479,4.4387,4.4546,4.4603,4.4627,4.4303,4.43,4.4297,4.4295,0,0,4.4213,4.4234,4.4262,4.4278,4.4304,4.4358,4.4443,4.4494,4.453,4.4564,4.4631,4.4719,4.4666,4.4694,4.4668,4.4729,4.4879,4.4665,4.4665,4.47,4.5038,4.5075,4.5104,4.4847,4.4852,4.4855,4.5033,0,4.4401,4.4546,4.4515,4.4657,4.472,4.4653,4.4726,4.4749,4.4744,4.4796,4.479,4.485,4.478,4.4795,4.4853,4.4848,4.4945,4.4836,4.4906,4.4908,4.4895,4.5134,4.5175,4.5343,4.5056,4.506,4.5063,0,4.464,4.468,4.4827,4.4838,4.4863,4.493,4.4972,4.5024,4.5047,4.5038,4.5068,4.5029,4.511,4.5021,4.513,4.5056,4.5084,4.5086,4.5091,4.5092,4.4992,4.5137,4.5396,4.5419,4.5099,4.5096,4.5094,0,4.4815,4.4907,4.5005,4.5022,4.5039,4.5086,4.5096,4.5113,4.5145,4.5183,4.5202,4.5249,4.5274,4.5311,4.5284,4.5223,4.5396,4.5306,4.5388,4.5389,4.5424,4.5421,4.5685,4.5451,4.545,4.545,4.5449,0,4.5026,4.5117,4.5083,4.5144,4.5243,4.5207,4.5306,4.5307,4.5323,4.5381,4.5328,4.5383,4.5347,4.5399,4.5379,4.5469,4.5483,4.5476,4.5468,4.5477,4.5478,4.5491,4.5477,4.5457,4.5455,4.5454,4.5453,0,4.5237,4.5219,4.532,4.5327,4.5331,4.5403,4.5408,4.5463,4.5453,4.5527,4.5542,4.5527,4.5584,4.5562,4.5625,4.5611,4.5725,4.5706,4.5717,4.571,4.5791,4.5782,4.6069,4.6103,4.5851,4.5854,4.5856,0,4.537,4.5438,4.5452,4.5486,4.5498,4.5555,4.5586,4.5553,4.5587,4.5617,4.5667,4.572,4.576,4.5855,4.5848,4.5895,4.5872,4.597,4.5879,4.5884,4.5867,4.5861,4.5865,4.5987,4.599,4.5992,4.5994,0,4.5607,4.5593,4.564,4.5683,4.5721,4.5754,4.5781,4.5813,4.578,4.5822,4.5879,4.591,4.5972,4.6023,4.6064,4.6072,4.6026,4.6023,4.6043,4.6051,4.6052,4.6047,4.5761,4.6016,4.6014,4.6012,4.6011,4.601,4.5779,4.5834,4.5851,4.5904,4.5921,4.5947,4.5997,4.5993,4.604,4.6087,4.6065,4.613,4.6148,4.6198,4.6212,4.6261,4.6223,4.6254,4.6261,4.6268,4.6275,4.6049,4.6269,4.6269,4.6268,4.6267,4.6267,0,4.6008,4.6014,4.6064,4.6102,4.6143,4.6098,4.6125,4.6162,4.622,4.624,4.628,4.6344,4.6393,4.639,4.6435,4.6475,4.6455,4.6487,4.6481,4.6483,4.631,4.6285,4.6502,4.6502,4.6502,4.6502,4.6502,4.6502,4.6131,4.6221,4.6209,4.6305,4.6311,4.6374,4.6392,4.6415,4.6431,4.6504,4.6544,4.6542,4.6552,4.6597,4.6639,4.6636,4.6653,4.6692,4.6682,4.6519,4.6496,4.6473,4.6449,4.6698,4.6698,4.685,4.6851,4.6852]},{"header":{"parameterUnit":"m.s-1","parameterCategory":1,"la1":30.2991,"la2":30.254,"lo1":-89.0895,"lo2":-89.0444,"dy":0.0017,"dx":0.0017,"nx":28,"ny":28,"refTime":"2023-08-18T09:00:00:Z","depth":0,"parameterNumber":3,"parameterNumberName":"V-component_of_WINDS"},"data":[0,0,0,0,0,0,0,0,0,0,0,0,0,0,0,0,0,0,0,0,0,0,0,0,0,0,0,0,0,0,0,0,0,0,0,0,0,0,0,0,0,0,0,0,0,0,0,0,0,0,0,0,0,0,0,0,0,0,2.8684,2.8686,0,2.889,2.8893,2.8895,2.8917,2.8915,2.8913,2.8911,2.912,2.9128,2.9135,0,0,0,0,0,0,0,0,0,0,0,0,0,2.8304,2.8311,2.8683,2.8686,2.8689,2.889,2.8893,2.8896,2.8917,2.8915,2.8912,2.891,2.9118,2.9127,2.9136,0,0,0,0,0,0,0,0,0,0,0,0,0,2.8485,2.8313,2.8683,2.8724,2.873,2.889,2.8893,2.8896,2.8918,2.8915,2.8912,2.8909,2.9115,2.9126,2.9137,2.927,0,0,2.9172,2.9177,0,0,0,0,0,0,0,0,2.8475,2.8499,2.8715,2.8721,2.8728,2.8875,2.8836,2.9022,2.8919,2.8846,2.8911,2.8907,2.9041,2.9058,2.9104,2.928,2.9289,2.9173,2.918,2.9184,2.9188,0,0,0,0,0,0,0,2.8463,2.8491,2.8765,2.8718,2.8726,2.8731,2.8753,2.8871,2.8959,2.8852,2.8855,2.8879,2.9044,2.9093,2.9109,2.9292,2.9172,2.9182,2.9189,2.9194,2.9584,2.9587,0,0,0,0,0,0,2.8443,2.848,2.8759,2.8772,2.8591,2.874,2.8765,2.8831,2.8958,2.8974,2.8881,2.8879,2.9075,2.9096,2.9116,2.9278,2.9184,2.9195,2.9201,2.958,2.9585,2.9588,0,0,0,0,0,0,2.8435,2.8467,2.875,2.8627,2.8663,2.875,2.8824,2.8837,2.8886,2.8979,2.8995,2.8916,2.9074,2.9101,2.9231,2.9286,2.92,2.921,2.9576,2.9582,2.9586,2.9604,0,0,0,0,0,0,2.8424,2.8464,2.8517,2.8628,2.8669,2.8863,2.8827,2.8843,2.8905,2.8904,2.9016,2.9031,2.9073,2.9214,2.9242,2.93,2.9219,2.9571,2.9578,2.9585,2.9599,2.9609,2.9618,0,0,0,0,0,2.841,2.8514,2.8519,2.8553,2.8737,2.8866,2.889,2.8937,2.891,2.8962,2.9022,2.9027,2.9275,2.9227,2.9259,2.9321,2.9568,2.9576,2.9584,2.9594,2.9607,2.9618,0,0,0,0,0,0,2.8407,2.8529,2.8537,2.8679,2.8762,2.8869,2.8937,2.8949,2.9041,2.9036,2.909,2.9115,2.9242,2.9295,2.9239,2.9455,2.9419,2.9434,2.9416,2.9428,2.9438,2.9422,2.9228,0,0,0,0,0,2.8423,2.8518,2.862,2.8736,2.8777,2.885,2.8908,2.8937,2.9024,2.9059,2.9129,2.9213,2.9309,2.9372,2.9466,2.9607,2.963,2.9664,2.9674,2.9681,2.9693,2.9768,2.9784,2.9615,2.9615,2.9615,0,0,2.8457,2.8535,2.8592,2.8737,2.8805,2.8901,2.8879,2.8983,2.9054,2.9075,2.9202,2.9256,2.9353,2.9488,2.9551,2.9536,2.9745,2.9692,2.9697,2.9705,2.9778,2.9794,2.9808,2.962,2.9619,2.9618,0,0,2.8567,2.8637,2.874,2.8808,2.8911,2.8958,2.8983,2.9088,2.9125,2.9253,2.927,2.9355,2.9522,2.9589,2.9645,2.9779,2.9787,2.9808,2.9858,2.9931,2.9944,2.9956,3.0002,3.0018,2.982,2.982,2.982,0,2.8596,2.8743,2.8792,2.8894,2.8956,2.898,2.9083,2.9147,2.9274,2.9316,2.9297,2.9504,2.9572,2.9722,2.9754,2.98,2.9827,2.9795,2.9939,2.9951,2.9963,3.0007,3.0024,2.9822,2.9822,2.9821,2.9821,0,2.8772,2.8873,2.8944,2.9067,2.9137,2.924,2.9302,2.9367,2.939,2.9438,2.9568,2.9649,2.9759,2.9797,2.982,2.995,2.9937,2.9928,2.9893,2.998,3.0022,3.004,2.9824,2.9824,2.9823,2.9823,0,0,2.8887,2.9034,2.9059,2.9113,2.9227,2.9306,2.9409,2.9517,2.957,2.9657,2.9743,2.9882,2.9874,2.9937,2.9968,3.0032,3.013,3.0015,3.0018,3.0032,3.0275,3.0279,3.0298,3.0136,3.0139,3.0142,3.0266,0,2.9008,2.9193,2.9239,2.9395,2.9488,2.9511,2.96,2.9678,2.9726,2.9811,2.9864,2.996,2.9944,2.9982,3.0046,3.0104,3.0179,3.0096,3.0214,3.0218,3.0188,3.0321,3.0327,3.044,3.0283,3.0286,3.0288,0,2.9176,2.9265,2.9431,2.9531,2.9571,2.9651,2.9752,2.9833,2.9922,2.9952,3.0022,3.0046,3.0152,3.0112,3.0257,3.02,3.0251,3.0286,3.0292,3.0303,3.0257,3.0334,3.0477,3.0493,3.0314,3.0312,3.031,0,2.9239,2.9402,2.9522,2.9568,2.9688,2.9743,2.9795,2.9881,2.9942,3.003,3.007,3.0169,3.0223,3.0298,3.0348,3.0315,3.0488,3.0453,3.0514,3.0513,3.0549,3.0545,3.07,3.0584,3.0584,3.0584,3.0583,0,2.937,2.947,2.9552,2.9625,2.9737,2.9788,2.9897,2.995,3.0025,3.0108,3.0134,3.0211,3.0272,3.0357,3.0396,3.0508,3.0533,3.0559,3.0568,3.0556,3.0552,3.0589,3.0582,3.0588,3.0587,3.0586,3.0586,0,2.946,2.9519,2.9651,2.9753,2.9781,2.9859,2.9945,3.0017,3.0065,3.0169,3.0196,3.0272,3.0373,3.0429,3.0556,3.0582,3.0707,3.0713,3.0677,3.0681,3.0738,3.0731,3.092,3.0947,3.0815,3.0816,3.0817,0,2.9538,2.9616,2.9726,2.9783,2.9836,2.9929,2.9991,3.0044,3.0107,3.0213,3.027,3.0373,3.0457,3.0617,3.0682,3.0778,3.0786,3.0845,3.08,3.0785,3.0784,3.0778,3.0785,3.0852,3.0854,3.0855,3.0855,0,2.967,2.9695,2.9784,2.9883,2.9957,3.0037,3.0117,3.0162,3.0228,3.0297,3.0401,3.0466,3.0595,3.0696,3.0797,3.0849,3.0863,3.0869,3.0888,3.0876,3.0851,3.0863,3.0696,3.0864,3.0863,3.0863,3.0862,3.0862,2.9756,2.9824,2.9912,3.001,3.0075,3.0149,3.022,3.0277,3.0364,3.0473,3.0499,3.0607,3.0691,3.0829,3.0884,3.0968,3.0957,3.0985,3.0992,3.0997,3.0998,3.0839,3.0987,3.0987,3.0986,3.0986,3.0986,0,2.9887,2.9944,3.0034,3.0144,3.022,3.0227,3.0315,3.0378,3.0473,3.0551,3.0633,3.0751,3.0848,3.092,3.1019,3.1072,3.108,3.1096,3.1092,3.1103,3.1003,3.0976,3.1087,3.1087,3.1087,3.1087,3.1087,3.1087,2.9964,3.008,3.0115,3.0263,3.0319,3.0426,3.0475,3.0542,3.0604,3.0734,3.0815,3.0862,3.0937,3.1041,3.113,3.1149,3.1183,3.1197,3.1216,3.1121,3.111,3.11,3.1075,3.1205,3.1205,3.1309,3.131,3.131]}]]